| time (UTC) | temp F | wind direction | speed MPH | gust MPH | rain 1hr in | rain 24hr in | rain mn in | humidity % | barometer mb |
| 20260906143011 | 77 | 171 | 3.0 | 7.0 | 0.00 | 0.00 | 0.00 | 43 | 1021.6 |
| 20260906142716 | 77 | 166 | 3.0 | 10.0 | 0.00 | 0.00 | 0.00 | 43 | 1021.7 |
| 20260906142510 | 77 | 169 | 4.0 | 10.0 | 0.00 | 0.00 | 0.00 | 43 | 1021.6 |
| 20260906142010 | 77 | 174 | 3.0 | 10.0 | 0.00 | 0.00 | 0.00 | 43 | 1021.6 |
| 20260906141510 | 77 | 184 | 3.0 | 8.0 | 0.00 | 0.00 | 0.00 | 45 | 1021.6 |
| 20260906140716 | 77 | 189 | 2.0 | 6.0 | 0.00 | 0.00 | 0.00 | 48 | 1021.7 |
| 20260906140510 | 77 | 190 | 3.0 | 7.0 | 0.00 | 0.00 | 0.00 | 45 | 1021.7 |
| 20260906135716 | 77 | 167 | 2.0 | 6.0 | 0.00 | 0.00 | 0.00 | 46 | 1021.6 |
| 20260906135510 | 77 | 153 | 3.0 | 6.0 | 0.00 | 0.00 | 0.00 | 45 | 1021.7 |
| 20260906135010 | 77 | 146 | 3.0 | 11.0 | 0.00 | 0.00 | 0.00 | 45 | 1021.8 |
| 20260906134716 | 76 | 127 | 4.0 | 11.0 | 0.00 | 0.00 | 0.00 | 45 | 1021.9 |
| 20260906134510 | 76 | 153 | 3.0 | 11.0 | 0.00 | 0.00 | 0.00 | 47 | 1021.9 |
| 20260906134010 | 77 | 174 | 3.0 | 11.0 | 0.00 | 0.00 | 0.00 | 44 | 1021.9 |
| 20260906133511 | 77 | 172 | 4.0 | 11.0 | 0.00 | 0.00 | 0.00 | 47 | 1021.8 |
| 20260906133010 | 76 | 163 | 3.0 | 9.0 | 0.00 | 0.00 | 0.00 | 47 | 1022.0 |
| 20260906132716 | 76 | 197 | 3.0 | 9.0 | 0.00 | 0.00 | 0.00 | 47 | 1022.0 |
| 20260906132511 | 76 | 151 | 3.0 | 9.0 | 0.00 | 0.00 | 0.00 | 48 | 1022.0 |
| 20260906131716 | 75 | 117 | 2.0 | 9.0 | 0.00 | 0.00 | 0.00 | 51 | 1022.1 |
| 20260906131510 | 74 | 115 | 4.0 | 9.0 | 0.00 | 0.00 | 0.00 | 49 | 1022.1 |
| 20260906131010 | 75 | 113 | 3.0 | 9.0 | 0.00 | 0.00 | 0.00 | 49 | 1022.2 |
| 20260906122711 | 75 | 182 | 2.0 | 7.0 | 0.00 | 0.00 | 0.00 | 50 | 1022.9 |
| 20260906122504 | 75 | 178 | 3.0 | 9.0 | 0.00 | 0.00 | 0.00 | 51 | 1023.0 |
| 20260906121712 | 74 | 153 | 5.0 | 9.0 | 0.00 | 0.00 | 0.00 | 51 | 1022.9 |
| 20260906121504 | 74 | 120 | 3.0 | 9.0 | 0.00 | 0.00 | 0.00 | 51 | 1023.0 |
| 20260906121004 | 74 | 101 | 4.0 | 11.0 | 0.00 | 0.00 | 0.00 | 51 | 1023.0 |
| 20260906120711 | 75 | 82 | 4.0 | 11.0 | 0.00 | 0.00 | 0.00 | 51 | 1023.2 |
| 20260906120504 | 75 | 133 | 3.0 | 11.0 | 0.00 | 0.00 | 0.00 | 50 | 1023.1 |
| 20260906120004 | 75 | 191 | 3.0 | 8.0 | 0.00 | 0.00 | 0.00 | 52 | 1023.2 |
| 20260906115711 | 75 | 225 | 3.0 | 8.0 | 0.00 | 0.00 | 0.00 | 51 | 1023.3 |
| 20260906115504 | 75 | 169 | 3.0 | 8.0 | 0.00 | 0.00 | 0.00 | 51 | 1023.2 |
| 20260906115004 | 75 | 150 | 3.0 | 10.0 | 0.00 | 0.00 | 0.00 | 52 | 1023.3 |
| 20260906114711 | 74 | 162 | 4.0 | 10.0 | 0.00 | 0.00 | 0.00 | 54 | 1023.5 |
| 20260906114504 | 74 | 144 | 3.0 | 10.0 | 0.00 | 0.00 | 0.00 | 54 | 1023.4 |
| 20260906113504 | 74 | 144 | 3.0 | 9.0 | 0.00 | 0.00 | 0.00 | 54 | 1023.5 |
| 20260906112711 | 74 | 152 | 3.0 | 11.0 | 0.00 | 0.00 | 0.00 | 54 | 1023.6 |
| 20260906112504 | 74 | 159 | 3.0 | 11.0 | 0.00 | 0.00 | 0.00 | 53 | 1023.6 |
| 20260906112004 | 73 | 170 | 2.0 | 7.0 | 0.00 | 0.00 | 0.00 | 57 | 1023.7 |
| 20260906111711 | 73 | 181 | 3.0 | 7.0 | 0.00 | 0.00 | 0.00 | 54 | 1023.7 |
| 20260906111505 | 73 | 155 | 3.0 | 12.0 | 0.00 | 0.00 | 0.00 | 54 | 1023.8 |
| 20260906111005 | 73 | 158 | 3.0 | 12.0 | 0.00 | 0.00 | 0.00 | 54 | 1023.9 |
| 20260906110711 | 73 | 172 | 3.0 | 10.0 | 0.00 | 0.00 | 0.00 | 54 | 1023.9 |
| 20260906110504 | 73 | 171 | 3.0 | 10.0 | 0.00 | 0.00 | 0.00 | 54 | 1023.9 |
| 20260906110004 | 72 | 181 | 2.0 | 10.0 | 0.00 | 0.00 | 0.00 | 54 | 1023.9 |
| 20260906105711 | 72 | 180 | 2.0 | 10.0 | 0.00 | 0.00 | 0.00 | 53 | 1024.0 |
| 20260906105505 | 72 | 182 | 3.0 | 10.0 | 0.00 | 0.00 | 0.00 | 54 | 1023.9 |
| 20260906105006 | 71 | 168 | 3.0 | 8.0 | 0.00 | 0.00 | 0.00 | 56 | 1024.0 |
| 20260906104711 | 71 | 208 | 3.0 | 6.0 | 0.00 | 0.00 | 0.00 | 54 | 1024.0 |
| 20260906104505 | 71 | 115 | 3.0 | 9.0 | 0.00 | 0.00 | 0.00 | 55 | 1024.0 |
| 20260906104005 | 71 | 98 | 3.0 | 9.0 | 0.00 | 0.00 | 0.00 | 54 | 1024.1 |
| 20260906103711 | 71 | 72 | 3.0 | 9.0 | 0.00 | 0.00 | 0.00 | 55 | 1024.3 |
| 20260906103505 | 71 | 103 | 2.0 | 8.0 | 0.00 | 0.00 | 0.00 | 55 | 1024.3 |
| 20260906103005 | 71 | 116 | 2.0 | 7.0 | 0.00 | 0.00 | 0.00 | 56 | 1024.4 |
| 20260906102711 | 70 | 124 | 2.0 | 6.0 | 0.00 | 0.00 | 0.00 | 60 | 1024.4 |
| 20260906102504 | 70 | 124 | 2.0 | 6.0 | 0.00 | 0.00 | 0.00 | 60 | 1024.4 |
| 20260906102006 | 70 | 170 | 3.0 | 7.0 | 0.00 | 0.00 | 0.00 | 58 | 1024.4 |
| 20260906101505 | 69 | 155 | 3.0 | 8.0 | 0.00 | 0.00 | 0.00 | 59 | 1024.3 |
| 20260906101005 | 69 | 115 | 3.0 | 9.0 | 0.00 | 0.00 | 0.00 | 59 | 1024.3 |
| 20260906100711 | 69 | 103 | 3.0 | 9.0 | 0.00 | 0.00 | 0.00 | 59 | 1024.3 |
| 20260906100505 | 69 | 117 | 3.0 | 9.0 | 0.00 | 0.00 | 0.00 | 60 | 1024.4 |
| 20260906100005 | 69 | 91 | 3.0 | 7.0 | 0.00 | 0.00 | 0.00 | 58 | 1024.4 |
| 20260906095711 | 69 | 80 | 3.0 | 8.0 | 0.00 | 0.00 | 0.00 | 58 | 1024.5 |
| 20260906095505 | 69 | 94 | 4.0 | 8.0 | 0.00 | 0.00 | 0.00 | 58 | 1024.4 |
| 20260906095005 | 69 | 109 | 4.0 | 10.0 | 0.00 | 0.00 | 0.00 | 57 | 1024.6 |
| 20260906094711 | 68 | 124 | 3.0 | 10.0 | 0.00 | 0.00 | 0.00 | 56 | 1024.7 |
| 20260906094506 | 68 | 112 | 4.0 | 10.0 | 0.00 | 0.00 | 0.00 | 57 | 1024.6 |
| 20260906094005 | 68 | 110 | 4.0 | 9.0 | 0.00 | 0.00 | 0.00 | 59 | 1024.6 |
| 20260906093711 | 68 | 125 | 4.0 | 9.0 | 0.00 | 0.00 | 0.00 | 58 | 1024.7 |
| 20260906093505 | 68 | 105 | 3.0 | 9.0 | 0.00 | 0.00 | 0.00 | 58 | 1024.6 |
| 20260906093005 | 68 | 122 | 3.0 | 8.0 | 0.00 | 0.00 | 0.00 | 60 | 1024.7 |
| 20260906092711 | 68 | 113 | 2.0 | 7.0 | 0.00 | 0.00 | 0.00 | 60 | 1024.8 |
| 20260906092005 | 68 | 111 | 3.0 | 9.0 | 0.00 | 0.00 | 0.00 | 63 | 1024.7 |
| 20260906091711 | 67 | 79 | 4.0 | 9.0 | 0.00 | 0.00 | 0.00 | 61 | 1024.8 |
| 20260906091505 | 67 | 109 | 3.0 | 9.0 | 0.00 | 0.00 | 0.00 | 62 | 1024.8 |
| 20260906091005 | 67 | 108 | 3.0 | 8.0 | 0.00 | 0.00 | 0.00 | 62 | 1024.9 |
| 20260906090505 | 67 | 89 | 3.0 | 8.0 | 0.00 | 0.00 | 0.00 | 61 | 1024.8 |
| 20260906090005 | 67 | 97 | 3.0 | 10.0 | 0.00 | 0.00 | 0.00 | 63 | 1024.9 |
| 20260906085712 | 67 | 73 | 3.0 | 10.0 | 0.00 | 0.00 | 0.00 | 65 | 1024.9 |
| 20260906085505 | 67 | 125 | 3.0 | 10.0 | 0.00 | 0.00 | 0.00 | 65 | 1024.9 |
| 20260906085005 | 66 | 117 | 3.0 | 8.0 | 0.00 | 0.00 | 0.00 | 66 | 1025.2 |
| 20260906084505 | 66 | 106 | 3.0 | 10.0 | 0.00 | 0.00 | 0.00 | 67 | 1025.2 |
| 20260906084005 | 66 | 111 | 3.0 | 10.0 | 0.00 | 0.00 | 0.00 | 63 | 1025.3 |
| 20260906083712 | 65 | 111 | 3.0 | 10.0 | 0.00 | 0.00 | 0.00 | 66 | 1025.3 |
| 20260906083505 | 65 | 152 | 3.0 | 9.0 | 0.00 | 0.00 | 0.00 | 66 | 1025.3 |
| 20260906083006 | 65 | 198 | 2.0 | 7.0 | 0.00 | 0.00 | 0.00 | 68 | 1025.3 |
| 20260906082712 | 64 | 242 | 3.0 | 7.0 | 0.00 | 0.00 | 0.00 | 69 | 1025.4 |
| 20260906082505 | 64 | 175 | 3.0 | 7.0 | 0.00 | 0.00 | 0.00 | 69 | 1025.3 |
| 20260906082005 | 64 | 148 | 2.0 | 5.0 | 0.00 | 0.00 | 0.00 | 70 | 1025.4 |
| 20260906081506 | 64 | 150 | 2.0 | 5.0 | 0.00 | 0.00 | 0.00 | 70 | 1025.5 |
| 20260906080712 | 63 | 155 | 2.0 | 8.0 | 0.00 | 0.00 | 0.00 | 75 | 1025.3 |
| 20260906080505 | 63 | 137 | 2.0 | 8.0 | 0.00 | 0.00 | 0.00 | 74 | 1025.3 |
| 20260906080005 | 62 | 129 | 2.0 | 8.0 | 0.00 | 0.00 | 0.00 | 75 | 1025.2 |
| 20260906075712 | 62 | 113 | 1.0 | 6.0 | 0.00 | 0.00 | 0.00 | 75 | 1025.2 |
| 20260906075506 | 62 | 153 | 1.0 | 6.0 | 0.00 | 0.00 | 0.00 | 75 | 1025.2 |
| 20260906075006 | 61 | 173 | 1.0 | 6.0 | 0.00 | 0.00 | 0.00 | 79 | 1025.2 |
| 20260906074712 | 60 | 209 | 1.0 | 3.0 | 0.00 | 0.00 | 0.00 | 79 | 1025.2 |
| 20260906074505 | 60 | 250 | 1.0 | 4.0 | 0.00 | 0.00 | 0.00 | 79 | 1025.2 |
| 20260906074005 | 60 | 280 | 1.0 | 3.0 | 0.00 | 0.00 | 0.00 | 81 | 1025.1 |
| 20260906073505 | 59 | 0 | 0.0 | 3.0 | 0.00 | 0.00 | 0.00 | 84 | 1025.2 |
| 20260906073006 | 58 | 0 | 0.0 | 3.0 | 0.00 | 0.00 | 0.00 | 86 | 1025.1 |
| 20260906072712 | 57 | 283 | 0.0 | 0.0 | 0.00 | 0.00 | 0.00 | 88 | 1025.2 |
| 20260906072506 | 57 | 0 | 0.0 | 0.0 | 0.00 | 0.00 | 0.00 | 87 | 1025.1 |
| 20260906072005 | 56 | 0 | 0.0 | 0.0 | 0.00 | 0.00 | 0.00 | 90 | 1025.2 |
| 20260906071712 | 56 | 283 | 0.0 | 0.0 | 0.00 | 0.00 | 0.00 | 92 | 1025.2 |
| 20260906071506 | 55 | 0 | 0.0 | 2.0 | 0.00 | 0.00 | 0.00 | 92 | 1025.2 |
| 20260906071006 | 55 | 0 | 0.0 | 2.0 | 0.00 | 0.00 | 0.00 | 92 | 1025.1 |
| 20260906070712 | 54 | 283 | 0.0 | 1.0 | 0.00 | 0.00 | 0.00 | 93 | 1025.1 |
| 20260906070505 | 54 | 0 | 0.0 | 2.0 | 0.00 | 0.00 | 0.00 | 93 | 1025.1 |
| 20260906070006 | 53 | 0 | 0.0 | 2.0 | 0.00 | 0.00 | 0.00 | 93 | 1025.1 |
| 20260906065712 | 53 | 283 | 0.0 | 2.0 | 0.00 | 0.00 | 0.00 | 94 | 1025.1 |
| 20260906064712 | 52 | 283 | 0.0 | 2.0 | 0.00 | 0.00 | 0.00 | 93 | 1025.0 |
| 20260906064006 | 52 | 0 | 0.0 | 2.0 | 0.00 | 0.00 | 0.00 | 93 | 1025.1 |
| 20260906063712 | 51 | 284 | 0.0 | 0.0 | 0.00 | 0.00 | 0.00 | 93 | 1025.1 |
| 20260906063506 | 51 | 0 | 0.0 | 0.0 | 0.00 | 0.00 | 0.00 | 93 | 1025.1 |
| 20260906062712 | 50 | 284 | 0.0 | 0.0 | 0.00 | 0.00 | 0.00 | 93 | 1025.1 |
| 20260906062506 | 50 | 0 | 0.0 | 0.0 | 0.00 | 0.00 | 0.00 | 93 | 1025.2 |
| 20260906062006 | 49 | 0 | 0.0 | 0.0 | 0.00 | 0.00 | 0.00 | 93 | 1025.2 |
| 20260906061712 | 49 | 284 | 0.0 | 0.0 | 0.00 | 0.00 | 0.00 | 93 | 1025.2 |
| 20260906061507 | 49 | 0 | 0.0 | 0.0 | 0.00 | 0.00 | 0.00 | 93 | 1025.2 |
| 20260906060713 | 48 | 284 | 0.0 | 0.0 | 0.00 | 0.00 | 0.00 | 93 | 1025.0 |
| 20260906060506 | 48 | 0 | 0.0 | 0.0 | 0.00 | 0.00 | 0.00 | 93 | 1025.0 |
| 20260906060006 | 48 | 0 | 0.0 | 0.0 | 0.00 | 0.00 | 0.00 | 93 | 1025.0 |
| 20260906055712 | 48 | 284 | 0.0 | 0.0 | 0.00 | 0.00 | 0.00 | 93 | 1025.0 |
| 20260906055506 | 47 | 0 | 0.0 | 0.0 | 0.00 | 0.00 | 0.00 | 92 | 1025.1 |
| 20260906054712 | 47 | 284 | 0.0 | 0.0 | 0.00 | 0.00 | 0.00 | 92 | 1025.0 |
| 20260906054506 | 47 | 0 | 0.0 | 0.0 | 0.00 | 0.00 | 0.00 | 92 | 1025.1 |
| 20260906054007 | 47 | 0 | 0.0 | 0.0 | 0.00 | 0.00 | 0.00 | 92 | 1024.9 |
| 20260906053713 | 47 | 284 | 0.0 | 0.0 | 0.00 | 0.00 | 0.00 | 91 | 1025.0 |
| 20260906053505 | 47 | 0 | 0.0 | 0.0 | 0.00 | 0.00 | 0.00 | 91 | 1024.9 |
| 20260906053006 | 47 | 0 | 0.0 | 0.0 | 0.00 | 0.00 | 0.00 | 91 | 1024.9 |
| 20260906052712 | 46 | 284 | 0.0 | 0.0 | 0.00 | 0.00 | 0.00 | 91 | 1024.8 |
| 20260906052506 | 46 | 0 | 0.0 | 0.0 | 0.00 | 0.00 | 0.00 | 91 | 1024.8 |
| 20260906052006 | 46 | 0 | 0.0 | 0.0 | 0.00 | 0.00 | 0.00 | 91 | 1024.8 |
| 20260906051712 | 46 | 284 | 0.0 | 0.0 | 0.00 | 0.00 | 0.00 | 91 | 1024.8 |
| 20260906051506 | 46 | 0 | 0.0 | 0.0 | 0.00 | 0.00 | 0.00 | 91 | 1024.9 |
| 20260906051007 | 46 | 0 | 0.0 | 0.0 | 0.00 | 0.00 | 0.00 | 91 | 1024.8 |
| 20260906050714 | 46 | 284 | 0.0 | 0.0 | 0.00 | 0.00 | 0.00 | 91 | 1025.0 |
| 20260906050506 | 46 | 0 | 0.0 | 0.0 | 0.00 | 0.00 | 0.00 | 91 | 1025.0 |
| 20260906050006 | 46 | 0 | 0.0 | 0.0 | 0.00 | 0.00 | 0.00 | 91 | 1025.0 |
| 20260906045713 | 46 | 284 | 0.0 | 0.0 | 0.00 | 0.00 | 0.00 | 91 | 1025.0 |
| 20260906045508 | 46 | 0 | 0.0 | 0.0 | 0.00 | 0.00 | 0.00 | 91 | 1025.0 |
| 20260906045006 | 46 | 0 | 0.0 | 0.0 | 0.00 | 0.00 | 0.00 | 91 | 1025.0 |
| 20260906044507 | 46 | 0 | 0.0 | 0.0 | 0.00 | 0.00 | 0.00 | 91 | 1025.1 |
| 20260906044006 | 46 | 0 | 0.0 | 0.0 | 0.00 | 0.00 | 0.00 | 90 | 1025.1 |
| 20260906043713 | 46 | 284 | 0.0 | 0.0 | 0.00 | 0.00 | 0.00 | 90 | 1025.1 |
| 20260906043506 | 46 | 0 | 0.0 | 0.0 | 0.00 | 0.00 | 0.00 | 90 | 1025.1 |
| 20260906043006 | 46 | 0 | 0.0 | 0.0 | 0.00 | 0.00 | 0.00 | 90 | 1025.0 |
| 20260906042713 | 47 | 284 | 0.0 | 0.0 | 0.00 | 0.00 | 0.00 | 90 | 1025.0 |
| 20260906042506 | 47 | 0 | 0.0 | 0.0 | 0.00 | 0.00 | 0.00 | 90 | 1025.0 |
| 20260906042007 | 47 | 0 | 0.0 | 0.0 | 0.00 | 0.00 | 0.00 | 90 | 1025.0 |
| 20260906041714 | 47 | 284 | 0.0 | 0.0 | 0.00 | 0.00 | 0.00 | 90 | 1025.1 |
| 20260906041506 | 47 | 0 | 0.0 | 0.0 | 0.00 | 0.00 | 0.00 | 90 | 1025.0 |
| 20260906041008 | 47 | 0 | 0.0 | 0.0 | 0.00 | 0.00 | 0.00 | 90 | 1025.0 |
| 20260906040715 | 47 | 284 | 0.0 | 0.0 | 0.00 | 0.00 | 0.00 | 90 | 1025.1 |
| 20260906040506 | 47 | 0 | 0.0 | 0.0 | 0.00 | 0.00 | 0.00 | 90 | 1025.1 |
| 20260906040006 | 47 | 0 | 0.0 | 0.0 | 0.00 | 0.00 | 0.00 | 90 | 1025.1 |
| 20260906035713 | 47 | 284 | 0.0 | 0.0 | 0.00 | 0.00 | 0.00 | 90 | 1025.0 |
| 20260906035506 | 47 | 0 | 0.0 | 0.0 | 0.00 | 0.00 | 0.00 | 90 | 1025.0 |
| 20260906035006 | 47 | 0 | 0.0 | 0.0 | 0.00 | 0.00 | 0.00 | 90 | 1025.0 |
| 20260906034006 | 47 | 0 | 0.0 | 0.0 | 0.00 | 0.00 | 0.00 | 90 | 1024.9 |
| 20260906033713 | 47 | 284 | 0.0 | 0.0 | 0.00 | 0.00 | 0.00 | 90 | 1024.9 |
| 20260906033507 | 47 | 0 | 0.0 | 0.0 | 0.00 | 0.00 | 0.00 | 90 | 1024.9 |
| 20260906033007 | 47 | 0 | 0.0 | 0.0 | 0.00 | 0.00 | 0.00 | 90 | 1024.9 |
| 20260906032506 | 47 | 0 | 0.0 | 0.0 | 0.00 | 0.00 | 0.00 | 90 | 1025.0 |
| 20260906031507 | 47 | 0 | 0.0 | 0.0 | 0.00 | 0.00 | 0.00 | 90 | 1025.2 |
| 20260906031007 | 47 | 0 | 0.0 | 0.0 | 0.00 | 0.00 | 0.00 | 90 | 1025.4 |
| 20260906030714 | 47 | 284 | 0.0 | 0.0 | 0.00 | 0.00 | 0.00 | 90 | 1025.4 |
| 20260906030507 | 47 | 0 | 0.0 | 0.0 | 0.00 | 0.00 | 0.00 | 90 | 1025.4 |
| 20260906030007 | 47 | 0 | 0.0 | 0.0 | 0.00 | 0.00 | 0.00 | 90 | 1025.5 |
| 20260906025713 | 47 | 284 | 0.0 | 0.0 | 0.00 | 0.00 | 0.00 | 90 | 1025.3 |
| 20260906025506 | 47 | 0 | 0.0 | 0.0 | 0.00 | 0.00 | 0.00 | 90 | 1025.4 |
| 20260906025007 | 47 | 0 | 0.0 | 0.0 | 0.00 | 0.00 | 0.00 | 90 | 1025.5 |
| 20260906024713 | 47 | 284 | 0.0 | 0.0 | 0.00 | 0.00 | 0.00 | 90 | 1025.7 |
| 20260906024006 | 47 | 0 | 0.0 | 0.0 | 0.00 | 0.00 | 0.00 | 89 | 1025.6 |
| 20260906023713 | 47 | 284 | 0.0 | 0.0 | 0.00 | 0.00 | 0.00 | 89 | 1025.6 |
| 20260906023506 | 47 | 0 | 0.0 | 0.0 | 0.00 | 0.00 | 0.00 | 89 | 1025.7 |
| 20260906023009 | 48 | 0 | 0.0 | 0.0 | 0.00 | 0.00 | 0.00 | 89 | 1025.6 |
| 20260906022713 | 48 | 284 | 0.0 | 0.0 | 0.00 | 0.00 | 0.00 | 89 | 1025.3 |
| 20260906022507 | 48 | 0 | 0.0 | 0.0 | 0.00 | 0.00 | 0.00 | 89 | 1025.4 |
| 20260906021713 | 48 | 284 | 0.0 | 0.0 | 0.00 | 0.00 | 0.00 | 89 | 1025.2 |
| 20260906021507 | 48 | 0 | 0.0 | 0.0 | 0.00 | 0.00 | 0.00 | 89 | 1025.2 |
| 20260906021007 | 48 | 0 | 0.0 | 0.0 | 0.00 | 0.00 | 0.00 | 89 | 1025.2 |
| 20260906020714 | 48 | 284 | 0.0 | 0.0 | 0.00 | 0.00 | 0.00 | 89 | 1025.2 |
| 20260906020507 | 48 | 0 | 0.0 | 0.0 | 0.00 | 0.00 | 0.00 | 89 | 1025.2 |
| 20260906020007 | 48 | 0 | 0.0 | 0.0 | 0.00 | 0.00 | 0.00 | 89 | 1025.2 |
| 20260906015507 | 48 | 0 | 0.0 | 0.0 | 0.00 | 0.00 | 0.00 | 89 | 1025.2 |
| 20260906014713 | 49 | 284 | 0.0 | 0.0 | 0.00 | 0.00 | 0.00 | 89 | 1025.2 |
| 20260906014507 | 49 | 0 | 0.0 | 0.0 | 0.00 | 0.00 | 0.00 | 89 | 1025.3 |
| 20260906014007 | 49 | 0 | 0.0 | 0.0 | 0.00 | 0.00 | 0.00 | 89 | 1025.3 |
| 20260906013713 | 49 | 284 | 0.0 | 0.0 | 0.00 | 0.00 | 0.00 | 89 | 1025.2 |
| 20260906013509 | 49 | 0 | 0.0 | 0.0 | 0.00 | 0.00 | 0.00 | 89 | 1025.2 |
| 20260906013007 | 49 | 0 | 0.0 | 0.0 | 0.00 | 0.00 | 0.00 | 89 | 1025.2 |
| 20260906012714 | 49 | 284 | 0.0 | 0.0 | 0.00 | 0.00 | 0.00 | 89 | 1025.3 |
| 20260906012507 | 49 | 0 | 0.0 | 0.0 | 0.00 | 0.00 | 0.00 | 89 | 1025.2 |
| 20260906012007 | 49 | 0 | 0.0 | 0.0 | 0.00 | 0.00 | 0.00 | 89 | 1025.2 |
| 20260906011714 | 49 | 284 | 0.0 | 0.0 | 0.00 | 0.00 | 0.00 | 89 | 1025.3 |
| 20260906011508 | 49 | 0 | 0.0 | 0.0 | 0.00 | 0.00 | 0.00 | 89 | 1025.3 |
| 20260906011007 | 49 | 0 | 0.0 | 0.0 | 0.00 | 0.00 | 0.00 | 89 | 1025.3 |
| 20260906010507 | 49 | 0 | 0.0 | 0.0 | 0.00 | 0.00 | 0.00 | 89 | 1025.2 |
| 20260906010008 | 49 | 0 | 0.0 | 0.0 | 0.00 | 0.00 | 0.00 | 89 | 1025.1 |
| 20260906005713 | 49 | 284 | 0.0 | 0.0 | 0.00 | 0.00 | 0.00 | 88 | 1025.1 |
| 20260906005507 | 49 | 0 | 0.0 | 0.0 | 0.00 | 0.00 | 0.00 | 88 | 1025.0 |
| 20260906005008 | 49 | 0 | 0.0 | 0.0 | 0.00 | 0.00 | 0.00 | 88 | 1025.2 |
| 20260906004714 | 49 | 284 | 0.0 | 0.0 | 0.00 | 0.00 | 0.00 | 88 | 1025.1 |
| 20260906004008 | 49 | 0 | 0.0 | 0.0 | 0.00 | 0.00 | 0.00 | 88 | 1025.1 |
| 20260906003714 | 49 | 284 | 0.0 | 0.0 | 0.00 | 0.00 | 0.00 | 88 | 1025.2 |
| 20260906003507 | 49 | 0 | 0.0 | 0.0 | 0.00 | 0.00 | 0.00 | 88 | 1025.2 |
| 20260906002714 | 50 | 284 | 0.0 | 0.0 | 0.00 | 0.00 | 0.00 | 88 | 1025.1 |
| 20260906002507 | 50 | 0 | 0.0 | 0.0 | 0.00 | 0.00 | 0.00 | 88 | 1025.1 |
| 20260906002007 | 50 | 0 | 0.0 | 0.0 | 0.00 | 0.00 | 0.00 | 88 | 1025.0 |
| 20260906001714 | 50 | 284 | 0.0 | 0.0 | 0.00 | 0.00 | 0.00 | 88 | 1025.2 |
| 20260906001507 | 50 | 0 | 0.0 | 0.0 | 0.00 | 0.00 | 0.00 | 88 | 1025.1 |
| 20260906001009 | 50 | 0 | 0.0 | 0.0 | 0.00 | 0.00 | 0.00 | 88 | 1025.1 |
| 20260906000714 | 50 | 284 | 0.0 | 0.0 | 0.00 | 0.00 | 0.00 | 88 | 1025.0 |
| 20260906000507 | 50 | 0 | 0.0 | 0.0 | 0.00 | 0.00 | 0.00 | 88 | 1025.1 |
| 20260906000008 | 50 | 0 | 0.0 | 0.0 | 0.00 | 0.00 | 0.00 | 88 | 1025.1 |
| 20260905235714 | 50 | 284 | 0.0 | 0.0 | 0.00 | 0.00 | 0.00 | 88 | 1025.2 |
| 20260905235507 | 50 | 0 | 0.0 | 0.0 | 0.00 | 0.00 | 0.00 | 88 | 1025.1 |
| 20260905235007 | 50 | 0 | 0.0 | 0.0 | 0.00 | 0.00 | 0.00 | 88 | 1025.2 |
| 20260905234714 | 50 | 284 | 0.0 | 0.0 | 0.00 | 0.00 | 0.00 | 88 | 1025.1 |
| 20260905234507 | 50 | 0 | 0.0 | 0.0 | 0.00 | 0.00 | 0.00 | 88 | 1025.1 |
| 20260905233714 | 51 | 284 | 0.0 | 0.0 | 0.00 | 0.00 | 0.00 | 87 | 1025.1 |
| 20260905233007 | 51 | 0 | 0.0 | 0.0 | 0.00 | 0.00 | 0.00 | 87 | 1025.1 |
| 20260905232714 | 51 | 284 | 0.0 | 0.0 | 0.00 | 0.00 | 0.00 | 87 | 1025.1 |
| 20260905232508 | 51 | 0 | 0.0 | 0.0 | 0.00 | 0.00 | 0.00 | 87 | 1025.1 |
| 20260905232008 | 51 | 0 | 0.0 | 0.0 | 0.00 | 0.00 | 0.00 | 87 | 1025.1 |
| 20260905230714 | 51 | 284 | 0.0 | 0.0 | 0.00 | 0.00 | 0.00 | 87 | 1025.0 |
| 20260905230508 | 51 | 0 | 0.0 | 0.0 | 0.00 | 0.00 | 0.00 | 87 | 1024.9 |
| 20260905230008 | 51 | 0 | 0.0 | 0.0 | 0.00 | 0.00 | 0.00 | 87 | 1025.1 |
| 20260905225714 | 51 | 284 | 0.0 | 0.0 | 0.00 | 0.00 | 0.00 | 87 | 1025.0 |
| 20260905225507 | 51 | 0 | 0.0 | 0.0 | 0.00 | 0.00 | 0.00 | 87 | 1025.0 |
| 20260905225007 | 51 | 0 | 0.0 | 0.0 | 0.00 | 0.00 | 0.00 | 87 | 1025.0 |
| 20260905224714 | 51 | 284 | 0.0 | 0.0 | 0.00 | 0.00 | 0.00 | 86 | 1025.0 |
| 20260905224508 | 51 | 0 | 0.0 | 0.0 | 0.00 | 0.00 | 0.00 | 86 | 1025.0 |
| 20260905223714 | 52 | 284 | 0.0 | 0.0 | 0.00 | 0.00 | 0.00 | 86 | 1024.9 |
| 20260905223507 | 52 | 0 | 0.0 | 0.0 | 0.00 | 0.00 | 0.00 | 86 | 1024.9 |
| 20260905223010 | 52 | 0 | 0.0 | 0.0 | 0.00 | 0.00 | 0.00 | 86 | 1024.9 |
| 20260905222008 | 52 | 0 | 0.0 | 0.0 | 0.00 | 0.00 | 0.00 | 86 | 1024.9 |
| 20260905221508 | 52 | 0 | 0.0 | 0.0 | 0.00 | 0.00 | 0.00 | 86 | 1024.8 |
| 20260905221008 | 52 | 0 | 0.0 | 0.0 | 0.00 | 0.00 | 0.00 | 86 | 1024.7 |
| 20260905220715 | 52 | 284 | 0.0 | 0.0 | 0.00 | 0.00 | 0.00 | 85 | 1024.6 |
| 20260905220508 | 52 | 0 | 0.0 | 0.0 | 0.00 | 0.00 | 0.00 | 86 | 1024.6 |
| 20260905220008 | 52 | 0 | 0.0 | 0.0 | 0.00 | 0.00 | 0.00 | 85 | 1024.6 |
| 20260905215714 | 53 | 284 | 0.0 | 0.0 | 0.00 | 0.00 | 0.00 | 85 | 1024.6 |
| 20260905215508 | 53 | 0 | 0.0 | 0.0 | 0.00 | 0.00 | 0.00 | 85 | 1024.6 |
| 20260905215008 | 53 | 0 | 0.0 | 0.0 | 0.00 | 0.00 | 0.00 | 85 | 1024.5 |
| 20260905214715 | 53 | 284 | 0.0 | 0.0 | 0.00 | 0.00 | 0.00 | 85 | 1024.5 |
| 20260905214008 | 53 | 0 | 0.0 | 0.0 | 0.00 | 0.00 | 0.00 | 84 | 1024.5 |
| 20260905213508 | 53 | 0 | 0.0 | 0.0 | 0.00 | 0.00 | 0.00 | 85 | 1024.5 |
| 20260905213008 | 53 | 0 | 0.0 | 0.0 | 0.00 | 0.00 | 0.00 | 85 | 1024.5 |
| 20260905212714 | 53 | 284 | 0.0 | 0.0 | 0.00 | 0.00 | 0.00 | 84 | 1024.6 |
| 20260905212508 | 53 | 0 | 0.0 | 0.0 | 0.00 | 0.00 | 0.00 | 84 | 1024.5 |
| 20260905212008 | 53 | 0 | 0.0 | 0.0 | 0.00 | 0.00 | 0.00 | 84 | 1024.6 |
| 20260905211716 | 54 | 284 | 0.0 | 0.0 | 0.00 | 0.00 | 0.00 | 84 | 1024.5 |
| 20260905211008 | 54 | 0 | 0.0 | 0.0 | 0.00 | 0.00 | 0.00 | 84 | 1024.4 |
| 20260905210715 | 54 | 284 | 0.0 | 0.0 | 0.00 | 0.00 | 0.00 | 83 | 1024.3 |
| 20260905210508 | 54 | 0 | 0.0 | 0.0 | 0.00 | 0.00 | 0.00 | 83 | 1024.3 |
| 20260905210008 | 54 | 0 | 0.0 | 0.0 | 0.00 | 0.00 | 0.00 | 83 | 1024.3 |
| 20260905205715 | 54 | 284 | 0.0 | 0.0 | 0.00 | 0.00 | 0.00 | 83 | 1024.2 |
| 20260905205508 | 54 | 0 | 0.0 | 0.0 | 0.00 | 0.00 | 0.00 | 83 | 1024.2 |
| 20260905205008 | 54 | 0 | 0.0 | 0.0 | 0.00 | 0.00 | 0.00 | 82 | 1024.2 |
| 20260905204715 | 55 | 284 | 0.0 | 0.0 | 0.00 | 0.00 | 0.00 | 82 | 1024.2 |
| 20260905204508 | 55 | 0 | 0.0 | 0.0 | 0.00 | 0.00 | 0.00 | 82 | 1024.2 |
| 20260905204008 | 55 | 0 | 0.0 | 0.0 | 0.00 | 0.00 | 0.00 | 82 | 1024.2 |
| 20260905203715 | 55 | 284 | 0.0 | 0.0 | 0.00 | 0.00 | 0.00 | 82 | 1024.1 |
| 20260905203509 | 55 | 0 | 0.0 | 0.0 | 0.00 | 0.00 | 0.00 | 81 | 1024.2 |
| 20260905203008 | 55 | 0 | 0.0 | 0.0 | 0.00 | 0.00 | 0.00 | 81 | 1024.2 |
| 20260905202715 | 56 | 284 | 0.0 | 0.0 | 0.00 | 0.00 | 0.00 | 80 | 1024.1 |
| 20260905202008 | 56 | 0 | 0.0 | 0.0 | 0.00 | 0.00 | 0.00 | 80 | 1024.1 |
| 20260905201716 | 56 | 284 | 0.0 | 0.0 | 0.00 | 0.00 | 0.00 | 79 | 1024.1 |
| 20260905201508 | 56 | 0 | 0.0 | 0.0 | 0.00 | 0.00 | 0.00 | 79 | 1024.1 |
| 20260905201009 | 56 | 0 | 0.0 | 0.0 | 0.00 | 0.00 | 0.00 | 79 | 1024.0 |
| 20260905200509 | 57 | 0 | 0.0 | 0.0 | 0.00 | 0.00 | 0.00 | 79 | 1024.0 |
| 20260905200009 | 57 | 0 | 0.0 | 0.0 | 0.00 | 0.00 | 0.00 | 78 | 1024.0 |
| 20260905195715 | 57 | 284 | 0.0 | 0.0 | 0.00 | 0.00 | 0.00 | 77 | 1023.9 |
| 20260905195508 | 57 | 0 | 0.0 | 0.0 | 0.00 | 0.00 | 0.00 | 77 | 1023.9 |
| 20260905194509 | 58 | 0 | 0.0 | 0.0 | 0.00 | 0.00 | 0.00 | 76 | 1023.9 |
| 20260905194009 | 58 | 0 | 0.0 | 0.0 | 0.00 | 0.00 | 0.00 | 75 | 1023.9 |
| 20260905193715 | 58 | 284 | 0.0 | 1.0 | 0.00 | 0.00 | 0.00 | 75 | 1023.9 |
| 20260905193509 | 59 | 0 | 0.0 | 1.0 | 0.00 | 0.00 | 0.00 | 75 | 1023.8 |
| 20260905193008 | 59 | 0 | 0.0 | 1.0 | 0.00 | 0.00 | 0.00 | 75 | 1023.9 |
| 20260905192715 | 59 | 284 | 0.0 | 0.0 | 0.00 | 0.00 | 0.00 | 74 | 1023.7 |
| 20260905192509 | 59 | 0 | 0.0 | 0.0 | 0.00 | 0.00 | 0.00 | 74 | 1023.7 |
| 20260905191715 | 60 | 284 | 0.0 | 1.0 | 0.00 | 0.00 | 0.00 | 73 | 1023.6 |
| 20260905191508 | 60 | 0 | 0.0 | 1.0 | 0.00 | 0.00 | 0.00 | 73 | 1023.6 |
| 20260905190715 | 61 | 284 | 0.0 | 2.0 | 0.00 | 0.00 | 0.00 | 71 | 1023.6 |
| 20260905190509 | 61 | 284 | 1.0 | 2.0 | 0.00 | 0.00 | 0.00 | 71 | 1023.6 |
| 20260905185509 | 61 | 283 | 1.0 | 2.0 | 0.00 | 0.00 | 0.00 | 70 | 1023.6 |
| 20260905185009 | 61 | 284 | 1.0 | 2.0 | 0.00 | 0.00 | 0.00 | 70 | 1023.6 |
| 20260905184715 | 62 | 284 | 1.0 | 2.0 | 0.00 | 0.00 | 0.00 | 69 | 1023.6 |
| 20260905184509 | 62 | 283 | 1.0 | 2.0 | 0.00 | 0.00 | 0.00 | 69 | 1023.6 |
| 20260905184009 | 62 | 284 | 1.0 | 4.0 | 0.00 | 0.00 | 0.00 | 69 | 1023.5 |
| 20260905183715 | 62 | 284 | 1.0 | 4.0 | 0.00 | 0.00 | 0.00 | 68 | 1023.5 |
| 20260905183509 | 62 | 283 | 2.0 | 4.0 | 0.00 | 0.00 | 0.00 | 68 | 1023.5 |
| 20260905183009 | 63 | 283 | 2.0 | 4.0 | 0.00 | 0.00 | 0.00 | 68 | 1023.5 |
| 20260905182715 | 63 | 284 | 2.0 | 7.0 | 0.00 | 0.00 | 0.00 | 67 | 1023.3 |
| 20260905182511 | 63 | 306 | 2.0 | 7.0 | 0.00 | 0.00 | 0.00 | 67 | 1023.4 |
| 20260905182009 | 63 | 339 | 2.0 | 7.0 | 0.00 | 0.00 | 0.00 | 67 | 1023.3 |
| 20260905181009 | 64 | 335 | 3.0 | 8.0 | 0.00 | 0.00 | 0.00 | 65 | 1023.1 |
| 20260905180717 | 64 | 352 | 3.0 | 8.0 | 0.00 | 0.00 | 0.00 | 65 | 1023.1 |
| 20260905180509 | 64 | 331 | 3.0 | 8.0 | 0.00 | 0.00 | 0.00 | 65 | 1023.2 |
| 20260905180009 | 64 | 324 | 3.0 | 7.0 | 0.00 | 0.00 | 0.00 | 65 | 1023.1 |
| 20260905175715 | 64 | 323 | 3.0 | 5.0 | 0.00 | 0.00 | 0.00 | 65 | 1023.1 |
| 20260905175509 | 65 | 321 | 3.0 | 6.0 | 0.00 | 0.00 | 0.00 | 65 | 1023.1 |
| 20260905175009 | 65 | 318 | 3.0 | 7.0 | 0.00 | 0.00 | 0.00 | 64 | 1023.0 |
| 20260905174009 | 65 | 318 | 4.0 | 11.0 | 0.00 | 0.00 | 0.00 | 63 | 1023.0 |
| 20260905173715 | 65 | 300 | 4.0 | 11.0 | 0.00 | 0.00 | 0.00 | 63 | 1023.0 |
| 20260905173010 | 66 | 315 | 4.0 | 11.0 | 0.00 | 0.00 | 0.00 | 62 | 1022.9 |
| 20260905172716 | 66 | 283 | 5.0 | 12.0 | 0.00 | 0.00 | 0.00 | 62 | 1022.8 |
| 20260905172509 | 66 | 303 | 5.0 | 12.0 | 0.00 | 0.00 | 0.00 | 62 | 1022.7 |
| 20260905172009 | 66 | 300 | 6.0 | 12.0 | 0.00 | 0.00 | 0.00 | 62 | 1022.7 |
| 20260905171715 | 66 | 290 | 5.0 | 9.0 | 0.00 | 0.00 | 0.00 | 62 | 1022.7 |
| 20260905171510 | 66 | 307 | 6.0 | 10.0 | 0.00 | 0.00 | 0.00 | 61 | 1022.7 |
| 20260905170716 | 67 | 339 | 6.0 | 14.0 | 0.00 | 0.00 | 0.00 | 61 | 1022.6 |
| 20260905170509 | 67 | 304 | 6.0 | 14.0 | 0.00 | 0.00 | 0.00 | 61 | 1022.6 |
| 20260905165716 | 67 | 317 | 6.0 | 13.0 | 0.00 | 0.00 | 0.00 | 61 | 1022.6 |
| 20260905165010 | 67 | 307 | 6.0 | 13.0 | 0.00 | 0.00 | 0.00 | 61 | 1022.6 |
| 20260905164716 | 67 | 290 | 5.0 | 13.0 | 0.00 | 0.00 | 0.00 | 62 | 1022.5 |
| 20260905164509 | 67 | 311 | 6.0 | 13.0 | 0.00 | 0.00 | 0.00 | 61 | 1022.5 |
| 20260905164009 | 67 | 309 | 5.0 | 13.0 | 0.00 | 0.00 | 0.00 | 62 | 1022.5 |
| 20260905163509 | 67 | 297 | 4.0 | 10.0 | 0.00 | 0.00 | 0.00 | 63 | 1022.4 |
| 20260905163010 | 67 | 296 | 6.0 | 10.0 | 0.00 | 0.00 | 0.00 | 63 | 1022.3 |
| 20260905162717 | 68 | 288 | 6.0 | 11.0 | 0.00 | 0.00 | 0.00 | 64 | 1022.3 |
| 20260905162509 | 68 | 305 | 6.0 | 11.0 | 0.00 | 0.00 | 0.00 | 64 | 1022.3 |
| 20260905162009 | 68 | 310 | 6.0 | 11.0 | 0.00 | 0.00 | 0.00 | 63 | 1022.1 |
| 20260905161716 | 68 | 321 | 6.0 | 10.0 | 0.00 | 0.00 | 0.00 | 60 | 1022.0 |
| 20260905161009 | 69 | 317 | 5.0 | 14.0 | 0.00 | 0.00 | 0.00 | 60 | 1022.0 |
| 20260905160717 | 69 | 341 | 5.0 | 14.0 | 0.00 | 0.00 | 0.00 | 60 | 1022.0 |
| 20260905160509 | 69 | 319 | 7.0 | 14.0 | 0.00 | 0.00 | 0.00 | 60 | 1021.9 |
| 20260905160009 | 69 | 314 | 6.0 | 16.0 | 0.00 | 0.00 | 0.00 | 60 | 1021.9 |
| 20260905155009 | 69 | 315 | 6.0 | 16.0 | 0.00 | 0.00 | 0.00 | 59 | 1021.8 |
| 20260905154716 | 69 | 307 | 7.0 | 16.0 | 0.00 | 0.00 | 0.00 | 58 | 1021.6 |
| 20260905154510 | 69 | 307 | 7.0 | 16.0 | 0.00 | 0.01 | 0.00 | 59 | 1021.8 |
| 20260905154010 | 70 | 307 | 6.0 | 14.0 | 0.00 | 0.02 | 0.00 | 59 | 1021.7 |
| 20260905153509 | 70 | 307 | 7.0 | 13.0 | 0.00 | 0.02 | 0.00 | 58 | 1021.6 |
| 20260905153010 | 70 | 306 | 8.0 | 16.0 | 0.00 | 0.02 | 0.00 | 57 | 1021.6 |
| 20260905152509 | 71 | 312 | 8.0 | 17.0 | 0.00 | 0.02 | 0.00 | 56 | 1021.7 |
| 20260905151010 | 70 | 306 | 7.0 | 14.0 | 0.00 | 0.02 | 0.00 | 58 | 1021.4 |
| 20260905150716 | 70 | 359 | 7.0 | 17.0 | 0.00 | 0.00 | 0.00 | 59 | 1021.4 |
| 20260905150509 | 70 | 301 | 8.0 | 17.0 | 0.00 | 0.02 | 0.00 | 59 | 1021.4 |
| 20260905150010 | 70 | 301 | 8.0 | 17.0 | 0.00 | 0.02 | 0.00 | 58 | 1021.3 |
| 20260905145716 | 70 | 297 | 8.0 | 14.0 | 0.00 | 0.02 | 0.00 | 58 | 1021.2 |
| 20260905145009 | 69 | 310 | 8.0 | 17.0 | 0.00 | 0.02 | 0.00 | 59 | 1021.2 |
| 20260905144718 | 69 | 334 | 8.0 | 15.0 | 0.00 | 0.02 | 0.00 | 58 | 1021.2 |
| 20260905144510 | 69 | 303 | 7.0 | 15.0 | 0.00 | 0.03 | 0.00 | 59 | 1021.3 |
| 20260905144009 | 70 | 305 | 7.0 | 13.0 | 0.00 | 0.03 | 0.00 | 59 | 1021.4 |
| 20260905143716 | 70 | 287 | 6.0 | 12.0 | 0.00 | 0.02 | 0.00 | 60 | 1021.3 |